Regional Weather Roundup
Issued by NWS

Home | Current Version | Previous Version | Text Only | Print | Product List | Glossary On
Versions: 1 2 3 4 5 6 7 8 9 10 11 12 13 14 15 16 17 18 19 20 21 22 23 24 25 26 27 28 29 30 31 32 33 34 35 36 37 38 39 40 41 42 43 44 45 46 47 48 49 50
000
ASUS43 KLSX 292307
RWRMO

WEATHER SUMMARY FOR MISSOURI
NATIONAL WEATHER SERVICE SPRINGFIELD MO
600 PM CDT TUE JUL 29 2014

NOTE: "FAIR" INDICATES FEW OR NO CLOUDS BELOW 12,000 FEET WITH NO
       SIGNIFICANT WEATHER AND/OR OBSTRUCTIONS TO VISIBILITY.
       CURRENT SKY AND/OR WEATHER CONDITIONS ARE NOT AVAILABLE FOR
       CHILLICOTHE AND FARMINGTON.

MOZ001>031-035>038-043-044-053-054-300000-
...NORTHERN AND WESTERN MISSOURI...

CITY           SKY/WX    TMP DP  RH WIND       PRES   REMARKS
KANSAS CTY INT MOSUNNY   81  58  45 N8        30.11F
KANSAS C DTWN  MOSUNNY   82  56  40 N6        30.09F
LEE`S SUMMIT   SUNNY     79  55  43 NE5       30.11F
ST JOSEPH      SUNNY     77  59  53 N5        30.11F
CHILLICOTHE      N/A     81  56  42 CALM      30.11F
KIRKSVILLE     PTSUNNY   79  55  43 NW6       30.11F

$$
MOZ066>068-077>081-088>096-101>105-300000-
...SOUTHWEST MISSOURI...

CITY           SKY/WX    TMP DP  RH WIND       PRES   REMARKS
SPRINGFIELD    CLOUDY    82  54  37 NW3       30.11F
JOPLIN         MOSUNNY   80  58  46 NW6       30.11F

$$
MOZ032>034-039>042-045>050-055>058-069>072-300000-
...CENTRAL MISSOURI...

CITY           SKY/WX    TMP DP  RH WIND       PRES   REMARKS
COLUMBIA       PTSUNNY   81  55  40 N9        30.10F
JEFFERSON CITY MOSUNNY   81  52  36 N9        30.09F
ROLLA          MOSUNNY   79  51  37 N5        30.09F
SEDALIA        SUNNY     81  58  45 N6        30.11F
WHITEMAN AFB   MOSUNNY   79  45  30 N7        30.10F
OSAGE BEACH      N/A     79  55  44 CALM      30.10F

$$
MOZ051-052-059>065-300000-
...EAST CENTRAL MISSOURI...

CITY           SKY/WX    TMP DP  RH WIND       PRES   REMARKS
ST LOUIS INTL  MOSUNNY   80  57  45 N7        30.10F
SPIRIT OF STL  MOSUNNY   79  54  41 NW6       30.08F
ST CHARLES     SUNNY     79  55  43 NW6       30.09F

$$
MOZ072>076-082>087-097>100-106>115-300000-
...SOUTH CENTRAL AND SOUTHEAST MISSOURI...

CITY           SKY/WX    TMP DP  RH WIND       PRES   REMARKS
CAPE GIRARDEAU MOSUNNY   78  55  44 SE5       30.09F
FARMINGTON     SUNNY     79  52  38 NW3       30.13S
POPLAR BLUFF   SUNNY     78  54  43 E5        30.09F
WEST PLAINS    MOSUNNY   81  55  40 W7        30.12F

$$



USA.gov is the U.S. government's official web portal to all federal, state and local government web resources and services.